Location: *
(43.4667°N, 11.6833°E)
Time: 10:37:02
(UTC+00:00)

Cosmos 1844 - Pass Details

Date: 19 July 2019
Orbit: 823 x 867 km, 70.9° (Epoch: 20 August)

Event Time Altitude Azimuth Distance (km) Brightness Sun altitude
Rises 20:32:17 0° 338° (NNW) 3,381 8.3 -15.2°
Reaches altitude 10° 20:34:47 10° 344° (NNW) 2,449 7.2 -15.5°
Maximum altitude 20:40:16 52° 60° (ENE) 1,036 4.1 -16.1°
Enters shadow 20:43:23 25° 126° (SE) 1,638 4.6 -16.4°
